User: anonymous
Location: Columbia
(38.9520°N, 92.3340°W)
Time: 20:34:44
(UTC-05:00)
Language:

Iridium 52 - Orbit

View from above orbital plane
View from above orbital plane
View from above satellite
View from above satellite

Ground track
Ground track

The orbit data is extracted from the following two-line orbital elements,

1 25169U 98010A   14234.49891723  .00000010  00000-0 -36206-5 0  6506
2 25169 086.3930 060.7708 0002014 113.9851 300.0756 14.34217692864195
Epoch (UTC): 22 August 2014 11:58:26
Eccentricity: 0.0002014
inclination: 86.3930°
perigee height: 776 km
apogee height: 779 km
right ascension of ascending node: 60.7708°
argument of perigee: 113.9851°
revolutions per day: 14.34217692
mean anomaly at epoch: 300.0756°
orbit number at epoch: 86419

The dashed part of the orbit path shows where the satellite is in the earth's shadow,  

DLR